Weather in Poroslitsy

Russia / Kaluga Oblast     54°34′36″N   35°35′46″E
temp.,
°C
wind,
m/s
gust,
m/s
humid.,
%
clouds,
%
prec.,
mm/h
press.,
hPa
HPBL,
m
13 may, thu
thu1300:00+6se389711 0.0 1017223
03:00+5ese48975 0.0 1018165
06:00+7e51394100 0.0 1017355
09:00+11ese7108473 0.1 1016750
12:00+10ese71289100 2.2 1015736
15:00+14sse7107077 2.6 10141452
18:00+13sse5977100 0.9 1013854
21:00+10sse368742 0.9 1014110
14 may, fri
fri1400:00+8sse359149 0.0 101582
03:00+7se359484 0.0 101568
06:00+8se3793100 0.0 1015161
09:00+14se4780100 0.0 1015402
12:00+18ese5868100 0.0 1013803
15:00+18se7107899 1.2 1011759
18:00+17ese3585100 3.0 100996
21:00+15sse3691100 9.3 100888
15 may, sat
sat1500:00+14sse4119612 1.1 1008264
03:00+13sse369672 1.1 1008103
06:00+13sse38961 0.0 1008171
09:00+17ssw7107992 0.1 1008686
12:00+18sw796647 0.0 10091446
15:00+19ssw68643 0.5 10091384
18:00+18s587530 1.1 1010477
21:00+13s3589100 1.3 101193
16 may, sun
sun1600:00+12s3593100 0.3 101180
03:00+11s49976 0.8 1012205
06:00+10ssw389740 0.0 1013290
09:00+15wsw468228 0.0 1014638
12:00+18sw456310 0.0 10141281
15:00+20ssw345861 0.1 10141624
18:00+19sse236931 0.0 1014342
21:00+15se3376100 0.0 101432
17 may, mon
mon1700:00+13se3487100 0.0 101443
03:00+12e359137 0.0 101471
06:00+13e399096 0.0 1014193
09:00+18e6117796 0.0 1013512
12:00+23ese71066100 0.0 1011955
15:00+25ese7106632 0.0 10101197
18:00+23ese712685 0.0 1009695
21:00+17ese615815 0.0 1009375